This is the latest recevied weather packets stored in our database for station/object NR5ON-13. If no packets are shown the sender has not sent any weather packets the latest 10 day(s).
| Time | Temp. | Humidity | Pressure | Rain* | Wind** | Luminosity | Snow |
|---|---|---|---|---|---|---|---|
| 1778010821 | 12.78° C | 52% | 1013.2 hPa | 0 mm | - | - | - |
| 1778010507 | 12.78° C | 52% | 1013.1 hPa | 0 mm | - | - | - |
| 1778010215 | 12.78° C | 55% | 1013.2 hPa | 0 mm | - | - | - |
| 1778009920 | 13.33° C | 50% | 1013.4 hPa | 0 mm | - | - | - |
| 1778009608 | 13.89° C | 48% | 1013.1 hPa | 0 mm | - | - | - |
| 1778009316 | 13.89° C | 48% | 1013.1 hPa | 0 mm | - | - | - |
| 1778009021 | 13.89° C | 47% | 1013.2 hPa | 0 mm | - | - | - |
| 1778008711 | 13.89° C | 48% | 1013.2 hPa | 0 mm | - | - | - |
| 1778008416 | 13.89° C | 48% | 1013.2 hPa | 0 mm | - | - | - |
| 1778008122 | 13.33° C | 51% | 1013.2 hPa | 0 mm | - | - | - |
| 1778007806 | 12.78° C | 53% | 1013.2 hPa | 0 mm | - | - | - |
| 1778007511 | 12.78° C | 55% | 1013.2 hPa | 0 mm | - | - | - |
| 1778007216 | 13.33° C | 51% | 1013.3 hPa | 0 mm | - | - | - |
| 1778006901 | 13.89° C | 43% | 1013.2 hPa | 0 mm | - | - | - |
| 1778006610 | 13.89° C | 43% | 1013 hPa | 0 mm | - | - | - |
| 1778006315 | 13.89° C | 40% | 1013 hPa | 0 mm | - | - | - |
| 1778006020 | 13.89° C | 40% | 1013.3 hPa | 0 mm | - | - | - |
| 1778005709 | 13.89° C | 40% | 1013.1 hPa | 0 mm | - | - | - |
| 1778005413 | 13.89° C | 39% | 1013.2 hPa | 0 mm | - | - | - |
| 1778005118 | 13.89° C | 38% | 1013.1 hPa | 0 mm | - | - | - |
| 1778004806 | 13.89° C | 39% | 1013 hPa | 0 mm | - | - | - |
| 1778004512 | 13.33° C | 40% | 1013.1 hPa | 0 mm | - | - | - |
| 1778004217 | 13.33° C | 40% | 1013.1 hPa | 0 mm | - | - | - |
| 1778003923 | 13.33° C | 40% | 1013.2 hPa | 0 mm | - | - | - |
| 1778003608 | 12.78° C | 40% | 1013.2 hPa | 0 mm | - | - | - |
* Rain latest hour (hover to see other rain measurements)
** Current wind speed in m/s (hover to see current wind gust speed)